Weather History for FENTRESS NALF, VA

Change the Weather History Date:

Sunday, March 23, 2014

  Actual Average (KORF) Record (KORF)
Temperature  
Mean Temperature 50 °F 51 °F  
Max Temperature 63 °F 60 °F 90 °F (1907)
Min Temperature 37 °F 42 °F 20 °F (1885)
Degree Days  
Heating Degree Days 15 14  
Month to date heating degree days 392  
Since 1 July heating degree days 2961  
Cooling Degree Days 0 0  
Month to date cooling degree days 0  
Year to date cooling degree days 1  
Moisture  
Dew Point 35 °F    
Average Humidity 63    
Maximum Humidity 83    
Minimum Humidity 39    
Precipitation  
Precipitation 0.09 in 0.11 in 1.34 in (1989)
Month to date precipitation 2.72  
Year to date precipitation 9.24  
Snow  
Snow 0.00 in 0.00 in 1.50 in (1934)
Month to date snowfall 0.2  
Since 1 July snowfall 5.8  
Snow Depth -    
Sea Level Pressure  
Sea Level Pressure 30.03 in    
Wind  
Wind Speed 8 mph (North)    
Max Wind Speed 22 mph    
Max Gust Speed 29 mph    
Visibility 9 miles    
Events Rain    
T = Trace of Precipitation, MM = Missing Value Source: NWS Daily Summary

Daily Weather History Graph

Daily Weather History Graph

Search for Another Location

Airport:

Trip Planner

Search our weather history database for the weather conditions in past years. The results will help you decide how hot, cold, wet, or windy it might be!

Date:

Astronomy

Mar. 23, 2014 Rise Set
Actual Time 7:03 AM EDT 7:18 PM EDT
Civil Twilight 6:37 AM EDT 7:44 PM EDT
Nautical Twilight 6:07 AM EDT 8:15 PM EDT
Astronomical Twilight 5:37 AM EDT 8:45 PM EDT
Moon 1:26 AM EDT (3/23) 11:50 AM EDT (3/23)
Length of Visible Light 13h 06m
Length of Day
12h 15m
Waning Gibbous, 55% of the Moon is Illuminated
Mar 23
Waning Gibbous
Mar 23
Last Quarter
Mar 30
New
Apr 7
First Quarter
Apr 15
Full

Hourly Weather History & Observations

Time (EDT) Temp. Windchill Dew Point Humidity Pressure Visibility Wind Dir Wind Speed Gust Speed Precip Events Conditions
12:56 AM 61.0 °F - 42.1 °F 50% 29.95 in 10.0 mi SSW 3.5 mph - N/A   Clear
1:56 AM 59.0 °F - 45.0 °F 60% 29.94 in 10.0 mi Calm Calm - N/A   Clear
2:56 AM 57.9 °F - 46.0 °F 65% 29.95 in 10.0 mi NNW 6.9 mph - N/A   Clear
3:56 AM 57.9 °F - 41.0 °F 53% 29.94 in 10.0 mi NW 3.5 mph - N/A   Clear
4:56 AM 55.0 °F - 36.0 °F 49% 29.95 in 10.0 mi NNE 9.2 mph - N/A   Clear
5:56 AM 53.1 °F - 36.0 °F 52% 29.98 in 10.0 mi North 10.4 mph - N/A   Clear
6:56 AM 51.1 °F - 37.0 °F 59% 30.00 in 10.0 mi North 10.4 mph - N/A   Clear
7:56 AM 51.1 °F - 36.0 °F 56% 30.04 in 10.0 mi North 9.2 mph - N/A   Clear
8:56 AM 53.1 °F - 30.9 °F 43% 30.06 in 10.0 mi NNE 21.9 mph 28.8 mph N/A   Overcast
9:56 AM 54.0 °F - 33.1 °F 45% 30.06 in 10.0 mi NNE 15.0 mph 24.2 mph N/A   Scattered Clouds
10:56 AM 55.9 °F - 30.9 °F 39% 30.04 in 10.0 mi NNE 21.9 mph 28.8 mph N/A   Clear
11:56 AM 52.0 °F - 33.1 °F 49% 30.04 in 10.0 mi North 12.7 mph - N/A   Overcast
12:56 PM 50.0 °F - 30.0 °F 46% 30.04 in 10.0 mi North 13.8 mph 21.9 mph N/A   Overcast
1:56 PM 48.0 °F - 30.0 °F 50% 30.01 in 10.0 mi North 12.7 mph 21.9 mph N/A   Overcast
2:56 PM 48.9 °F - 28.0 °F 44% 29.99 in 10.0 mi North 11.5 mph - N/A   Overcast
3:56 PM 46.0 °F 41.4 °F 30.0 °F 54% 30.01 in 10.0 mi NNW 9.2 mph 19.6 mph 0.00 in Rain Light Rain
4:44 PM 43.0 °F 34.8 °F 32.0 °F 65% 30.02 in 4.0 mi North 18.4 mph 24.2 mph 0.01 in Rain Rain
4:56 PM 41.0 °F 33.9 °F 32.0 °F 70% 30.04 in 4.0 mi North 12.7 mph 23.0 mph 0.04 in Rain Rain
5:21 PM 39.9 °F 32.9 °F 34.0 °F 79% 30.02 in 5.0 mi North 11.5 mph 23.0 mph 0.03 in Rain Light Rain
5:36 PM 39.9 °F 32.9 °F 34.0 °F 79% 30.02 in 6.0 mi North 11.5 mph 20.7 mph 0.04 in Rain Light Rain
5:56 PM 39.9 °F 32.9 °F 34.0 °F 79% 30.04 in 6.0 mi North 11.5 mph - 0.04 in Rain Light Rain
6:56 PM 39.9 °F 35.8 °F 35.1 °F 83% 30.04 in 6.0 mi North 5.8 mph - 0.01 in Rain Light Rain
7:47 PM 41.0 °F 37.1 °F 35.1 °F 79% 30.03 in 10.0 mi North 5.8 mph - 0.00 in   Overcast
7:56 PM 41.0 °F 35.8 °F 35.1 °F 79% 30.05 in 10.0 mi North 8.1 mph - 0.00 in   Overcast
8:34 PM 41.0 °F 35.2 °F 35.1 °F 79% 30.06 in 10.0 mi North 9.2 mph - N/A   Overcast
8:52 PM 42.8 °F 38.6 °F 35.6 °F 76% 30.07 in 10.0 mi North 6.9 mph - N/A   Overcast
8:56 PM 42.1 °F 37.7 °F 35.1 °F 76% 30.07 in 10.0 mi North 6.9 mph - N/A   Overcast
9:56 PM 39.9 °F 37.8 °F 34.0 °F 79% 30.10 in 10.0 mi NNW 3.5 mph - N/A   Clear
10:56 PM 39.0 °F 36.8 °F 34.0 °F 82% 30.12 in 7.0 mi NW 3.5 mph - N/A   Clear
11:56 PM 37.9 °F - 33.1 °F 83% 30.12 in 5.0 mi Calm Calm - N/A   Haze